CZ-6A DEB, 61381

Orbit data source: Space-Track

CZ-6A DEB, 61381 is space debris in LEO originally from a launch on Tue, 06 Aug 2024 UTC launched from the Taiyaun Space Center, China (TSC). Debris objects in space refer to the collection of defunct objects orbiting the Earth. Examples of debris include non-operational satellites, rocket bodies, and fragments generated from explosions, collisions, or faulty payload assembly.

Loading next visibility...
Identifier
61381, 2024-140WW
Orbit
LEO
Country
Flag of CNCN / PRC
Related business
Manufacturer
SAST
Mission
Spacecraft
Bus & Motor
Unknown
Mass
Unknown
Launch date (UTC)
2024-08-06 (2 years ago)
Launch vehicle
Unknown
Launch site
Taiyaun Space Center, China (TSC)
Object type
Payload
Rocket body
Debris
Shape & HBR
Unknown shape, 0.1 m
Radar Cross Section
Medium (>0.1 m² and <1 m²)

Expand to show TLE details & history
Last TLE update: 17 hours ago

TLE from 17 hours ago
0 CZ-6A DEB
1 61381U 24140WW  26171.26836884  .00002066  00000-0  96600-3 0  9990
2 61381  88.9781 273.0145 0064778 189.4495 170.5481 14.18865013 92482
Epoch: 2026-06-20T06:26Z
TLE epoch observation values (Epoch: 2026-06-20T06:26:27.067Z)
Latitude
-0.00008°
Longitude
-92.08371°
Altitude
878.317 km
Speed
7.389 km/s
True Right ascension
18h 12m 03s
True Declination
0° 00' 00"
Sunlit
Object was in full shadow at epoch
Visualization orbit readout
Latitude
Unknown
Longitude
Unknown
Altitude
Unknown
Speed
Unknown
Apparent Right ascension
Unknown
Apparent Declination
Unknown
Sunlit
N/A
Visualization observer readout
Local Sidereal Time
10:17:56
Azimuth
Unknown
Elevation
Unknown
Doppler factor
Unknown
Orbital elements
Apogee altitude
872.814 km
Perigee altitude
779.479 km
Semi-major axis
7,204.284 km
Eccentricity
0.00648
Inclination
88.9781°
RAAN
273.0145°
Arg. of periapsis
189.4495°
True anomaly
170.66903°
Mean anomaly
170.5481°
Eccentric anomaly
170.60866°
Mean motion
3.54942 °/min
Orbital period
101.43 mins
BSTAR
0.000966
Loading maneuver chart data...
Computing Atmospheric mass density...
Loading historical data...
Loading historical data...
Loading historical data...
Loading historical data...
Loading historical data...
Loading historical data...
Loading historical data...

Documentation

Showing up to 5 results
|